Tracking 34747 objects as of 16-Jul-2026
HD Live streaming from Space Station
objects crossing your sky now

SHIYAN 19 (SY-19)

Track SHIYAN 19 (SY-19) now!
10-day predictions


NORAD ID: 55861
Int'l Code: 2023-034A
Perigee: 398.9 km
Apogee: 404.1 km
Inclination: 97.4 °
Period: 92.4 minutes
Semi major axis: 6772 km
RCS: Unknown
Launch date: March 15, 2023
Source: People's Republic of China (PRC)
Launch site: Jiuquan Satellite Launch Center, China (JSC)
Your satellite tracking list
Your tracking list is empty




NASA's NSSDC Master Catalog

Two Line Element Set (TLE):
1 55861U 23034A   26197.22313737  .00012091  00000-0  16472-3 0  9996
2 55861  97.3885  54.6392 0003817 220.0666 140.0308 15.57683712187082
Source of the keplerian elements: AFSPC